Location: Korczew
(51.3586°N, 19.4491°E)
Time: 22:07:36
(UTC+00:00)

GEOS 3 Rocket - Pass Details

Date: 19 May 2025
Orbit: 782 x 831 km, 115.0° (Epoch: 16 June)

Event Time Altitude Azimuth Distance (km) Brightness Sun altitude
Exits shadow 23:21:50 15° 138° (SE) 1,999 5.3 -18.0°
Maximum altitude 23:26:04 86° 226° (SW) 800 3.5 -17.9°
Drops below altitude 10° 23:31:14 10° 316° (NW) 2,379 6.5 -17.7°
Sets 23:33:33 0° 317° (NW) 3,319 7.3 -17.6°
